Location: Melque
(41.0517°N, 4.4694°W)
Time: 12:10:34
(UTC+00:00)

SKYMED 2 - Pass Details

Date: 19 March 2026
Orbit: 622 x 624 km, 97.9° (Epoch: 14 April)

Event Time Altitude Azimuth Distance (km) Brightness Sun altitude
Rises 19:09:16 0° 1° (N) 2,911 7.1 -8.4°
Reaches altitude 10° 19:11:40 10° 351° (N) 2,000 6.4 -8.9°
Maximum altitude 19:15:25 29° 291° (WNW) 1,141 5.8 -9.6°
Drops below altitude 10° 19:19:10 10° 231° (SW) 1,986 6.8 -10.3°
Sets 19:21:32 0° 220° (SW) 2,888 7.5 -10.7°
